Location: Asheville, NC
(35.6000°N, 82.5500°W)
Time: 06:03:07
(UTC-04:00)

JUGNU - Pass Details

Date: 04 January 2018
Orbit: 837 x 864 km, 20.0° (Epoch: 22 July)

Event Time Altitude Azimuth Distance (km) Brightness Sun altitude
Rises 19:42:54 0° 238° (WSW) 3,420 ? -26.2°
Reaches altitude 10° 19:46:21 10° 219° (SW) 2,483 ? -26.9°
Maximum altitude 19:50:06 17° 180° (S) 2,022 ? -27.7°
Enters shadow 19:51:16 16° 166° (SSE) 2,071 ? -27.9°
